Dewpoint
25 23 23 22 22 27 28 29 28 28 29 25 29 28 23 20 20 21 21 22 20 20 22 34 39 39 39 39 39 40 40 40 40 40 39 38 37 37 38 39 38 36 35 34
23 22 21 21 20 23 24 26 25 26 26 26 27 22 17 18 19 20 21 22 23 25 33 37 38 38 39 38 38 38 38 38 38 38 38 36 35 35 34 34 34 34 34 33
23 22 21 19 20 19 20 22 22 21 21 19 18 19 18 21 30 30 31 34 36 38 39 39 39 39 38 38 38 38 38 38 37 36 35 34 33 32 32 32 33 33 33 33
26 25 19 23 22 21 18 18 19 17 16 16 18 26 32 34 33 34 35 36 37 37 38 39 39 39 39 38 38 36 36 36 35 34 34 34 33 31 32 32 32 31 31 32
23 23 25 21 15 20 18 16 20 17 17 28 33 35 32 34 34 34 36 37 37 38 38 37 37 37 36 34 33 34 34 33 33 34 34 33 32 32 31 30 30 30 30 31
24 20 19 23 16 14 9 11 13 18 20 29 34 25 27 34 34 34 35 36 36 37 36 35 35 36 35 33 33 34 34 34 33 33 33 32 32 31 31 30 29 29 29 30
23 21 20 19 13 11 10 10 17 21 26 29 28 26 28 32 38 38 37 35 35 37 36 35 35 34 33 32 33 33 33 33 33 33 32 32 31 29 28 27 27 27 26 27
22 20 19 16 14 6 12 18 27 28 28 29 27 28 30 33 35 36 36 33 33 34 35 35 35 34 32 32 33 33 32 32 32 32 31 31 29 27 27 26 24 23 24 25
22 20 18 17 14 17 17 16 28 28 29 28 27 27 31 32 33 35 35 34 35 34 35 34 34 34 33 33 33 32 31 31 31 30 30 29 27 25 24 23 22 22 22 22
11 14 13 15 19 21 23 21 25 28 28 29 27 29 31 33 33 33 35 36 36 35 34 33 33 33 33 33 33 31 30 30 29 29 28 27 26 25 23 23 22 23 22 22
15 16 16 16 19 18 20 25 28 23 25 27 24 21 24 29 32 33 34 35 35 34 33 33 31 32 32 32 32 31 30 29 28 28 27 26 25 25 24 24 23 22 22 22
8 15 13 15 18 20 19 18 17 16 15 16 16 16 21 27 32 33 33 34 34 34 33 31 31 30 31 32 31 30 28 28 27 26 25 25 25 25 27 26 27 26 25 24
11 15 14 15 20 19 16 17 18 18 17 16 17 19 20 25 30 34 33 34 33 32 31 30 30 30 32 31 30 29 27 27 26 26 25 25 24 24 23 26 27 27 26 26
19 19 17 19 17 20 19 19 19 21 22 21 20 21 26 31 34 34 32 33 33 31 30 29 29 29 31 30 30 28 26 26 25 25 25 25 24 23 23 23 22 24 26 25
17 18 16 16 19 20 20 21 20 19 19 20 22 24 27 31 33 31 34 33 31 30 29 29 29 28 30 29 27 25 25 24 24 24 24 24 24 24 24 23 23 23 24 24
22 22 22 22 22 22 22 22 22 22 24 25 27 29 29 32 33 33 32 31 30 29 28 28 26 28 28 26 24 23 23 23 23 23 23 23 23 23 23 23 23 23 22 21
26 25 23 22 22 22 23 25 29 30 32 32 31 32 33 34 33 31 30 30 30 29 27 27 26 29 29 27 25 24 23 24 23 23 22 22 22 21 21 21 20 20 20 21
30 31 29 23 22 23 26 30 29 31 34 35 34 34 34 32 31 30 29 28 27 27 27 27 28 29 29 27 25 24 24 24 23 22 22 22 22 21 20 20 19 18 18 18
30 31 29 26 28 27 28 28 29 31 34 33 32 31 30 29 29 28 28 27 26 25 26 28 29 28 28 27 27 25 24 25 24 23 22 21 21 20 19 18 18 17 17 17
30 30 31 31 31 32 32 30 31 31 32 31 30 29 28 28 28 27 28 26 26 26 28 28 29 28 28 28 27 25 24 23 23 22 22 21 19 18 17 17 16 15 15 16
29 30 30 30 30 30 28 27 28 30 29 30 29 28 27 27 27 27 26 25 26 27 27 28 28 28 27 27 26 25 24 23 23 22 20 20 19 17 16 15 15 14 14 14
27 29 29 29 29 28 28 27 27 27 27 28 28 28 27 27 27 26 26 25 27 27 27 28 28 27 26 26 25 24 23 22 21 21 20 19 19 18 17 16 15 14 14 14
27 28 29 29 28 28 29 29 28 28 27 27 27 27 26 26 26 25 24 27 27 27 27 27 27 26 25 25 25 24 22 21 21 20 19 19 18 18 17 17 17 16 15 15
27 28 28 29 29 28 27 27 28 28 27 26 26 26 27 26 25 25 26 27 27 27 27 27 27 26 26 25 26 24 22 20 19 19 18 17 17 16 16 17 17 14 14 13
27 28 29 29 28 27 27 27 26 27 26 25 26 26 27 26 25 25 27 27 27 27 27 27 26 26 26 26 25 24 21 20 19 19 19 18 18 17 16 15 16 16 15 14
27 28 29 30 28 27 26 26 25 26 26 25 25 26 26 26 26 26 26 26 27 27 27 26 25 26 26 24 21 21 20 19 19 18 18 17 16 16 16 16 15 15 16 15
27 28 29 29 29 28 27 26 25 25 26 26 25 26 26 26 25 25 26 26 26 26 26 27 25 24 24 24 22 19 19 19 19 18 17 18 17 18 18 18 17 15 14 14
Wind_Speed
3 4 4 8 19 19 21 21 19 19 21 25 22 15 15 13 12 14 19 19 21 23 18 12 9 5 1 1 3 5 6 6 6 5 5 5 4 1 3 6 8 9 9 9
10 2 7 11 14 20 13 10 5 9 16 12 17 9 11 10 14 16 18 18 19 19 10 9 8 3 3 3 5 9 8 9 9 8 6 4 3 2 3 4 6 9 10 12
16 6 5 10 26 22 11 12 15 21 16 15 11 12 13 12 10 12 13 12 8 5 4 7 8 7 4 6 9 10 10 10 9 7 4 2 3 5 5 6 9 9 10 12
11 7 17 8 9 20 24 18 17 8 10 9 10 10 8 8 8 7 4 2 2 3 5 5 5 6 6 8 8 7 6 6 7 5 4 3 3 4 5 6 9 10 11 12
10 17 4 6 8 14 17 21 19 21 11 10 10 8 6 11 9 6 4 2 1 1 2 2 6 6 6 7 7 6 6 6 5 1 1 1 2 3 5 8 8 8 10 12
8 9 14 10 9 12 10 20 19 20 18 16 16 12 10 11 10 9 7 5 4 3 3 1 3 3 4 4 4 4 3 1 1 2 2 3 4 6 4 6 7 9 10 10
10 7 7 7 10 15 12 13 22 23 20 20 17 11 7 9 8 7 7 7 4 4 5 3 4 5 3 3 2 1 1 2 4 4 4 5 6 4 7 9 9 9 10 9
5 6 13 14 7 15 7 1 14 14 19 21 13 12 11 10 9 10 10 8 7 8 8 5 5 4 2 1 1 3 4 5 5 6 7 7 7 8 8 9 11 11 12 11
15 11 2 8 4 8 7 7 13 19 15 18 16 14 12 10 8 8 9 9 8 11 12 8 5 5 3 2 4 5 5 5 5 5 7 8 9 10 9 10 11 10 11 11
5 4 4 6 1 0 3 2 4 8 14 15 15 14 12 9 8 8 10 12 12 13 14 12 7 6 4 5 7 7 6 5 6 7 7 8 8 8 11 10 10 10 11 11
0 1 1 4 4 3 2 3 4 5 6 10 7 6 10 11 12 13 12 10 10 13 13 11 8 6 5 6 8 8 7 7 8 8 9 9 9 9 8 7 9 11 10 11
7 7 4 2 4 6 7 8 8 2 7 9 9 13 12 14 16 14 13 9 9 10 12 11 9 7 5 6 8 8 7 8 8 9 10 10 9 7 5 8 8 7 11 11
5 8 12 9 11 2 7 11 12 16 20 21 20 15 17 17 18 17 12 11 11 13 11 11 8 8 7 7 9 9 9 9 9 10 10 10 10 11 10 7 9 9 10 10
10 7 13 7 12 15 18 18 19 18 15 13 15 13 15 17 15 13 14 13 11 13 12 11 8 6 6 7 8 9 10 10 11 11 11 11 12 12 12 11 10 8 9 8
15 16 19 16 10 14 15 12 13 13 14 17 15 18 17 18 18 18 6 10 14 13 11 10 9 7 6 8 10 11 11 11 12 12 12 12 12 11 11 10 10 10 9 7
12 13 10 12 15 14 13 14 16 19 17 17 16 15 18 13 7 6 12 17 18 14 12 10 8 8 9 9 10 10 11 13 13 12 11 11 10 10 9 8 8 9 11 11
9 12 7 9 13 13 13 11 9 9 13 15 18 14 10 8 10 12 13 11 13 14 12 11 10 8 10 11 11 11 12 12 12 12 11 11 11 10 8 8 7 8 10 11
10 15 15 11 7 10 10 13 14 16 16 14 11 9 10 12 17 18 16 15 13 12 9 9 10 10 11 11 12 11 11 10 10 11 10 11 10 9 9 8 8 9 9 8
10 13 3 8 9 10 13 15 11 7 9 7 12 7 6 9 14 16 16 14 12 12 8 9 11 11 11 10 11 11 9 10 10 10 10 11 10 9 10 10 10 11 11 11
10 10 9 7 6 5 7 5 2 3 3 11 13 13 13 13 15 15 13 10 8 7 11 10 10 11 12 12 12 10 9 10 10 8 9 11 11 11 10 9 10 12 12 11
11 11 9 6 4 5 4 3 5 7 7 9 13 14 15 13 12 13 11 10 6 11 12 11 10 11 11 11 10 9 9 9 10 10 12 13 11 11 12 11 11 12 12 11
8 9 9 7 7 9 8 9 10 11 9 12 13 14 15 12 11 9 6 8 10 11 10 9 9 10 11 10 9 10 10 10 10 11 11 12 12 12 12 11 11 11 11 11
8 7 6 6 6 7 8 8 10 11 11 11 11 10 9 9 9 9 6 6 10 10 9 9 10 10 11 9 8 9 10 10 11 12 12 12 12 12 12 13 12 11 12 12
5 5 5 5 5 6 7 5 8 9 10 9 8 8 10 10 7 5 8 10 10 10 9 10 11 11 9 9 8 9 9 10 11 10 10 10 11 10 10 10 10 10 10 10
2 3 3 4 5 5 5 5 7 7 8 8 7 6 6 5 4 7 9 9 11 11 10 11 12 11 7 7 8 9 10 11 11 11 11 11 11 11 11 11 11 11 11 11
0 1 1 3 2 3 4 4 4 5 6 6 4 4 5 5 6 8 8 11 11 10 10 10 10 10 7 8 6 7 10 9 10 10 11 11 11 11 11 11 11 11 11 11
3 3 2 2 3 4 4 4 6 7 7 7 7 6 6 6 8 10 9 9 9 7 7 9 10 11 9 7 6 6 9 10 11 11 11 11 11 10 11 11 11 11 10 10
Wind_Direction
199 220 182 193 193 181 192 207 202 227 219 189 197 211 200 241 260 263 264 268 275 280 282 258 222 216 203 4 320 37 21 0 343 338 328 335 331 281 183 193 189 171 159 141
197 209 205 201 189 185 197 177 155 178 226 181 209 221 269 264 269 273 272 281 286 283 259 205 187 161 26 326 13 25 10 351 348 353 357 7 18 39 106 117 111 125 129 135
223 180 145 235 203 184 178 184 174 204 217 169 193 218 240 244 243 265 287 300 312 353 46 72 61 36 34 28 31 22 2 345 342 344 346 19 102 105 118 130 125 123 124 122
226 150 218 227 198 192 196 204 197 195 194 197 184 191 205 221 227 246 263 327 13 36 60 61 53 41 30 21 19 11 2 352 358 358 5 28 54 102 128 133 135 135 129 125
186 214 304 224 187 172 178 226 210 207 179 172 149 140 212 206 204 210 212 231 258 20 52 55 57 52 40 28 20 16 9 355 346 1 59 171 174 157 135 135 134 137 136 135
166 189 217 237 185 162 135 241 196 198 198 168 152 198 214 202 208 216 222 223 233 190 153 95 66 65 81 79 50 28 11 24 157 155 161 195 176 161 149 142 132 124 128 139
175 211 263 259 168 143 173 238 183 186 181 170 191 201 171 171 205 226 241 246 233 211 234 225 158 120 73 78 65 74 135 159 159 162 165 172 158 138 129 125 124 125 123 120
156 188 246 173 154 184 205 27 170 177 182 189 188 183 187 198 221 220 229 241 259 264 249 211 180 169 161 176 162 157 177 180 178 170 154 151 142 131 133 136 132 130 123 113
191 205 202 171 157 215 185 170 196 197 192 193 198 203 205 205 213 227 235 244 263 259 258 237 202 183 185 201 168 175 182 178 180 156 145 139 144 144 138 138 140 139 135 131
156 182 182 192 214 129 195 237 195 208 201 192 205 205 208 214 226 226 225 231 240 244 250 239 206 195 204 174 170 177 188 173 153 152 144 139 142 151 150 149 153 148 147 142
68 215 243 229 187 149 84 96 141 137 172 195 195 217 225 231 237 240 241 228 228 234 239 227 190 190 186 175 177 182 177 164 169 171 160 148 157 164 159 172 165 163 164 155
223 194 202 219 158 162 162 164 161 193 282 267 242 254 244 242 242 244 248 242 250 227 215 198 179 180 185 189 181 171 173 174 173 159 154 155 145 128 143 155 159 161 153 150
243 193 240 237 195 180 249 240 250 269 274 274 276 257 251 240 236 238 244 246 230 209 186 170 177 172 180 183 178 176 178 172 166 160 157 151 149 145 136 148 151 145 149 149
264 272 275 222 247 224 228 241 260 268 265 253 252 265 259 246 241 231 240 241 188 170 158 159 160 165 180 174 177 173 169 165 163 158 156 152 152 145 145 150 140 138 144 139
263 254 253 264 263 243 243 251 251 254 258 271 268 257 249 243 236 240 222 158 149 150 152 154 157 151 161 167 168 161 154 156 153 149 150 148 141 142 146 144 140 144 136 135
278 273 259 256 264 256 241 249 251 256 260 263 261 260 253 244 230 189 160 155 155 166 164 158 153 155 155 150 144 147 154 152 147 144 142 138 138 143 145 147 154 155 153 153
279 280 255 246 247 251 233 238 234 263 273 266 262 267 249 193 152 151 150 151 146 153 155 152 157 159 151 156 150 154 147 142 144 138 139 139 141 142 140 141 148 153 154 157
292 296 260 248 247 255 227 213 251 268 269 262 252 217 204 193 181 157 150 138 128 121 129 137 152 156 149 146 142 139 139 141 142 144 141 143 146 143 145 143 142 146 145 140
348 1 330 243 256 242 223 253 279 260 263 177 155 158 132 113 132 130 132 134 129 130 147 150 149 142 138 135 130 138 138 139 137 139 145 145 146 152 156 157 153 153 152 152
11 19 24 18 7 342 294 324 61 96 112 147 134 126 117 117 122 128 131 131 142 147 149 144 141 134 133 135 132 139 148 151 143 149 155 161 161 163 163 165 167 167 167 165
15 19 29 35 36 44 53 66 129 111 107 129 129 128 123 125 129 130 127 130 130 140 138 136 141 136 131 133 135 143 154 154 159 167 170 170 165 166 169 171 173 176 182 183
15 20 32 39 59 64 70 91 102 103 106 109 111 120 124 125 124 105 84 145 146 146 141 137 136 137 134 143 146 161 164 166 169 169 168 168 170 172 180 181 187 189 191 195
15 13 32 54 71 82 84 84 92 103 109 112 120 129 128 140 142 138 130 132 140 147 140 140 138 138 141 142 148 154 159 167 172 176 177 177 180 181 184 192 198 194 194 200
14 24 40 57 76 79 80 78 94 101 109 108 113 128 133 125 93 81 117 148 147 145 141 143 144 142 138 147 146 149 162 170 173 173 172 174 178 181 189 192 199 203 203 203
2 32 57 59 67 77 89 92 94 99 101 99 101 106 114 121 129 163 148 151 156 148 145 151 151 146 148 155 154 158 171 175 175 171 174 176 179 186 191 194 202 200 202 205
29 119 103 63 95 133 135 128 134 138 136 138 135 130 118 106 113 141 147 148 155 149 152 156 159 159 152 163 162 168 178 174 176 184 183 187 188 194 200 206 209 206 206 207
160 163 178 132 163 172 176 177 173 181 177 176 178 182 168 148 144 143 139 142 148 149 159 167 170 174 170 163 169 179 186 187 186 187 192 193 194 202 206 207 206 202 193 187